[[{"header":{"parameterUnit":"m.s-1","parameterCategory":2,"la1":30.2991,"la2":30.254,"lo1":-89.0895,"lo2":-89.0444,"dy":0.0017,"dx":0.0017,"nx":28,"ny":28,"refTime":"2023-08-14T03:00:00:Z","depth":"0","parameterNumber":2,"parameterNumberName":"U-component_of_CURRENTS"},"data":[0,0,0,0,0,0,0,0,0,0,0,0,0,0,0,0,0,0,0,0,0,0,0,0,0,0,0,0,0,0,0,0,0,0,0,0,0,0,0,0,0,0,0,0,0,0,0,0,0,0,0,0,0,0,0,0,0,0,0.4871,0.4872,0,0.4961,0.4962,0.4964,0.4923,0.4921,0.4918,0.4916,0.5009,0.5014,0.5019,0,0,0,0,0,0,0,0,0,0,0,0,0,0.4811,0.4812,0.4871,0.4872,0.4873,0.4961,0.4963,0.4964,0.4924,0.4921,0.4918,0.4915,0.5008,0.5013,0.5019,0,0,0,0,0,0,0,0,0,0,0,0,0,0.4864,0.4812,0.4871,0.4862,0.4862,0.4961,0.4963,0.4964,0.4924,0.4921,0.4917,0.4914,0.5006,0.5013,0.502,0.5136,0,0,0.5041,0.5045,0,0,0,0,0,0,0,0,0.4861,0.4867,0.4862,0.4863,0.4863,0.4926,0.4976,0.5021,0.4925,0.4903,0.4916,0.4912,0.4983,0.4992,0.5019,0.514,0.5144,0.5042,0.5046,0.5049,0.5051,0,0,0,0,0,0,0,0.4857,0.4863,0.4908,0.4864,0.4864,0.4904,0.4907,0.4985,0.4963,0.4904,0.4901,0.491,0.4983,0.5013,0.5021,0.5145,0.5042,0.5048,0.5053,0.5055,0.5476,0.5483,0,0,0,0,0,0,0.4839,0.486,0.4905,0.4911,0.4851,0.4908,0.491,0.4911,0.4962,0.4966,0.4913,0.4907,0.5002,0.5013,0.5024,0.5225,0.5049,0.5056,0.506,0.5469,0.5478,0.5485,0,0,0,0,0,0,0.4837,0.4842,0.4902,0.4886,0.4896,0.4911,0.4913,0.4914,0.4945,0.4968,0.4972,0.494,0.5,0.5014,0.5161,0.5225,0.5059,0.5066,0.5461,0.5472,0.5482,0.5587,0,0,0,0,0,0,0.4835,0.4841,0.4868,0.4885,0.4896,0.5026,0.4916,0.4919,0.4954,0.4949,0.4995,0.4998,0.4998,0.5151,0.5168,0.5232,0.5071,0.5452,0.5466,0.5478,0.5575,0.56,0.5622,0,0,0,0,0,0.4833,0.4929,0.4868,0.4875,0.4921,0.5032,0.5047,0.5043,0.4959,0.5042,0.5065,0.4997,0.5244,0.5164,0.5182,0.5249,0.5446,0.5462,0.5477,0.5565,0.5595,0.5621,0,0,0,0,0,0,0.494,0.4933,0.4868,0.4955,0.4997,0.5025,0.512,0.5062,0.514,0.5137,0.5099,0.5115,0.5269,0.5274,0.5185,0.542,0.533,0.535,0.5391,0.5419,0.5442,0.5388,0.5077,0,0,0,0,0,0.4961,0.5015,0.5009,0.5083,0.5118,0.51,0.5144,0.5133,0.5183,0.5209,0.5224,0.5272,0.5354,0.5393,0.5488,0.5618,0.559,0.5677,0.57,0.5719,0.5697,0.5736,0.5757,0.5537,0.5536,0.5536,0,0,0.5003,0.5025,0.5041,0.5108,0.5141,0.5223,0.5124,0.5232,0.5275,0.5216,0.533,0.5373,0.5419,0.5573,0.5637,0.5573,0.5785,0.5739,0.5753,0.572,0.5754,0.5774,0.5792,0.5547,0.5545,0.5543,0,0,0.5167,0.5158,0.5259,0.5305,0.5375,0.5372,0.5396,0.5437,0.5449,0.5579,0.5529,0.562,0.5751,0.5777,0.5804,0.6024,0.5922,0.6046,0.6091,0.6132,0.6147,0.616,0.6192,0.6206,0.6035,0.6035,0.6035,0,0.5233,0.5293,0.532,0.5436,0.5445,0.543,0.5503,0.5567,0.5638,0.5624,0.5657,0.5781,0.5852,0.5922,0.6015,0.6067,0.6051,0.5962,0.6151,0.6163,0.6174,0.6203,0.6217,0.6042,0.6041,0.604,0.604,0,0.543,0.5477,0.5572,0.5647,0.5703,0.5787,0.5816,0.5873,0.5864,0.5857,0.5955,0.6061,0.6087,0.6158,0.6166,0.6256,0.6211,0.6182,0.6048,0.62,0.6225,0.6238,0.6052,0.6049,0.6047,0.6046,0,0,0.5526,0.5664,0.5674,0.5668,0.5778,0.5814,0.5934,0.5956,0.5927,0.6073,0.6044,0.6257,0.6219,0.6252,0.6254,0.6312,0.6442,0.6277,0.6276,0.6252,0.6506,0.6293,0.6286,0.6409,0.6412,0.6414,0.6501,0,0.563,0.5788,0.5834,0.5914,0.5959,0.5956,0.602,0.6049,0.6075,0.6088,0.6166,0.6211,0.6277,0.6274,0.6357,0.6406,0.6473,0.6419,0.641,0.641,0.6153,0.6293,0.5915,0.5942,0.6513,0.6515,0.6516,0,0.5746,0.5812,0.59,0.59,0.5915,0.5962,0.5914,0.5984,0.6025,0.6046,0.6096,0.613,0.6251,0.629,0.6454,0.6397,0.6471,0.6525,0.6528,0.6281,0.6218,0.5883,0.5942,0.5799,0.6535,0.6533,0.6532,0,0.5671,0.5811,0.5827,0.5847,0.5913,0.5899,0.5913,0.594,0.594,0.5995,0.5993,0.6109,0.6162,0.6296,0.6462,0.6446,0.6617,0.6602,0.6481,0.6468,0.6118,0.6067,0.5972,0.6719,0.6719,0.6718,0.6718,0,0.5686,0.5688,0.578,0.5775,0.5752,0.582,0.5772,0.5807,0.5835,0.5815,0.5942,0.595,0.6165,0.6282,0.6436,0.6493,0.6608,0.6495,0.6473,0.6153,0.6107,0.5939,0.595,0.6722,0.6721,0.672,0.672,0,0.5586,0.5658,0.5671,0.5716,0.5719,0.5694,0.5694,0.5663,0.5714,0.5698,0.5722,0.585,0.5979,0.6176,0.6385,0.6412,0.6335,0.6519,0.6125,0.6052,0.5715,0.5747,0.5501,0.5383,0.6355,0.6351,0.6347,0,0.5549,0.5558,0.5594,0.5592,0.5606,0.5584,0.5561,0.5599,0.5578,0.5623,0.5611,0.5719,0.5752,0.596,0.6039,0.6191,0.6152,0.5903,0.5807,0.5635,0.566,0.5558,0.5474,0.5431,0.542,0.5411,0.5403,0,0.5464,0.5475,0.5484,0.5475,0.5454,0.5414,0.5393,0.5355,0.5389,0.5374,0.5342,0.5365,0.5478,0.5399,0.5567,0.5641,0.5565,0.571,0.5632,0.4999,0.4781,0.4673,0.5466,0.5321,0.533,0.5336,0.534,0.5343,0.5387,0.5364,0.5371,0.5342,0.5318,0.5225,0.5092,0.5086,0.5006,0.4862,0.5034,0.4881,0.4856,0.4987,0.5038,0.4817,0.5016,0.4661,0.4748,0.4685,0.4438,0.5039,0.4797,0.4802,0.4807,0.481,0.4814,0,0.5255,0.5242,0.5232,0.515,0.5028,0.5062,0.4945,0.4757,0.4573,0.4508,0.4411,0.4195,0.4087,0.4106,0.4018,0.3894,0.3803,0.3818,0.3605,0.3604,0.419,0.401,0.3459,0.3459,0.3459,0.346,0.346,0.346,0.519,0.5105,0.5089,0.4869,0.479,0.4482,0.4354,0.4141,0.4009,0.3646,0.341,0.3406,0.3534,0.3487,0.3323,0.3258,0.3164,0.293,0.3152,0.3571,0.3657,0.3739,0.3568,0.2933,0.2933,0.2301,0.2297,0.2293]},{"header":{"parameterUnit":"m.s-1","parameterCategory":2,"la1":30.2991,"la2":30.254,"lo1":-89.0895,"lo2":-89.0444,"dy":0.0017,"dx":0.0017,"nx":28,"ny":28,"refTime":"2023-08-14T03:00:00:Z","depth":"0","parameterNumber":3,"parameterNumberName":"V-component_of_CURRENTS"},"data":[0,0,0,0,0,0,0,0,0,0,0,0,0,0,0,0,0,0,0,0,0,0,0,0,0,0,0,0,0,0,0,0,0,0,0,0,0,0,0,0,0,0,0,0,0,0,0,0,0,0,0,0,0,0,0,0,0,0,0.0485,0.0485,0,0.0514,0.0515,0.0515,0.0509,0.0509,0.0508,0.0508,0.0636,0.0639,0.0643,0,0,0,0,0,0,0,0,0,0,0,0,0,0.0494,0.0494,0.0485,0.0485,0.0486,0.0514,0.0515,0.0515,0.0509,0.0509,0.0508,0.0508,0.0634,0.0639,0.0643,0,0,0,0,0,0,0,0,0,0,0,0,0,0.0503,0.0494,0.0485,0.0487,0.0487,0.0514,0.0515,0.0515,0.0509,0.0509,0.0508,0.0507,0.0633,0.0638,0.0644,0.0695,0,0,0.0662,0.0664,0,0,0,0,0,0,0,0,0.0503,0.0503,0.0486,0.0487,0.0487,0.0508,0.0565,0.058,0.051,0.0501,0.0508,0.0507,0.0603,0.0611,0.0616,0.0701,0.0706,0.0662,0.0666,0.0668,0.067,0,0,0,0,0,0,0,0.0502,0.0502,0.0496,0.0487,0.0487,0.051,0.051,0.0568,0.0557,0.0501,0.0501,0.0505,0.0604,0.061,0.0619,0.0708,0.0662,0.0667,0.0671,0.0673,0.0917,0.092,0,0,0,0,0,0,0.0496,0.0501,0.0495,0.0497,0.0494,0.051,0.051,0.0502,0.0554,0.0561,0.0506,0.0505,0.0601,0.0613,0.0624,0.0752,0.0668,0.0674,0.0677,0.0914,0.0918,0.0921,0,0,0,0,0,0,0.0496,0.0495,0.0494,0.0501,0.0502,0.051,0.0501,0.0503,0.0513,0.0557,0.0565,0.0515,0.0601,0.0616,0.0687,0.0754,0.0676,0.0682,0.0911,0.0915,0.0919,0.0967,0,0,0,0,0,0,0.0496,0.0494,0.0487,0.05,0.0502,0.0521,0.0502,0.0504,0.0516,0.0516,0.0568,0.0578,0.0601,0.0678,0.0692,0.0761,0.0686,0.0907,0.0913,0.0918,0.0961,0.0972,0.0981,0,0,0,0,0,0.0496,0.0496,0.0487,0.0486,0.0491,0.0522,0.0526,0.0529,0.0518,0.0533,0.0567,0.0577,0.0725,0.0684,0.0701,0.0773,0.0904,0.0911,0.0918,0.0957,0.097,0.0981,0,0,0,0,0,0,0.0503,0.0496,0.0486,0.0484,0.0504,0.0521,0.0533,0.0535,0.0571,0.0571,0.0604,0.0619,0.0713,0.0735,0.069,0.0862,0.0822,0.0832,0.0846,0.0859,0.0869,0.0919,0.0691,0,0,0,0,0,0.0498,0.0495,0.0501,0.0505,0.051,0.0521,0.0533,0.0537,0.0568,0.0581,0.0623,0.068,0.0755,0.0795,0.0856,0.0942,0.0944,0.1005,0.1015,0.1023,0.1078,0.1118,0.1136,0.0943,0.0943,0.0943,0,0,0.0503,0.0501,0.0498,0.0506,0.0516,0.057,0.0527,0.055,0.0618,0.0595,0.0695,0.0715,0.0785,0.0884,0.093,0.091,0.1068,0.1032,0.1038,0.109,0.1127,0.1145,0.1161,0.0948,0.0947,0.0946,0,0,0.0552,0.0507,0.0541,0.0559,0.058,0.0594,0.0604,0.063,0.0657,0.0737,0.0753,0.0815,0.0913,0.0983,0.1032,0.1141,0.1117,0.1154,0.1252,0.1288,0.1304,0.1318,0.1285,0.1296,0.1161,0.1161,0.1161,0,0.0563,0.06,0.0561,0.0615,0.0647,0.0616,0.069,0.0722,0.0776,0.0827,0.0783,0.095,0.098,0.1141,0.1172,0.117,0.1153,0.119,0.1299,0.1314,0.1328,0.1291,0.1303,0.1164,0.1164,0.1164,0.1163,0,0.0656,0.0686,0.0708,0.0766,0.0798,0.084,0.0879,0.0925,0.0938,0.0978,0.1101,0.1125,0.123,0.1242,0.1243,0.1379,0.1318,0.1296,0.1259,0.135,0.1305,0.1316,0.1169,0.1168,0.1167,0.1166,0,0,0.0681,0.076,0.0767,0.0817,0.0874,0.0907,0.1027,0.1127,0.1204,0.1244,0.1364,0.1463,0.1441,0.1498,0.1492,0.1524,0.1562,0.1454,0.1454,0.1405,0.1588,0.1479,0.1479,0.1542,0.1545,0.1549,0.1494,0,0.0772,0.0885,0.0918,0.1041,0.1096,0.1124,0.1235,0.1317,0.1366,0.1463,0.1508,0.1597,0.155,0.1571,0.1612,0.16,0.1605,0.1577,0.1526,0.1525,0.1405,0.1496,0.1375,0.1313,0.1504,0.1506,0.1507,0,0.0857,0.0921,0.1047,0.1164,0.1192,0.1269,0.1403,0.1499,0.1629,0.1668,0.1762,0.177,0.1877,0.1774,0.1824,0.18,0.1715,0.1668,0.1664,0.1574,0.1441,0.127,0.1326,0.1172,0.1524,0.1523,0.1521,0,0.0862,0.1008,0.1103,0.1139,0.1272,0.1349,0.1426,0.1557,0.165,0.1784,0.1848,0.1951,0.1992,0.1967,0.1886,0.1852,0.1881,0.1814,0.1631,0.1617,0.1521,0.1494,0.1423,0.1824,0.1825,0.1825,0.1825,0,0.0922,0.0999,0.1104,0.1143,0.1274,0.1358,0.15,0.1593,0.174,0.1879,0.1934,0.2047,0.2039,0.205,0.1951,0.1843,0.1931,0.1687,0.1629,0.1525,0.1501,0.1367,0.1303,0.1822,0.1823,0.1823,0.1824,0,0.0912,0.0983,0.1085,0.1218,0.1268,0.1347,0.1523,0.1635,0.1758,0.1942,0.1991,0.2131,0.2154,0.2093,0.204,0.191,0.1699,0.1726,0.1572,0.1499,0.1177,0.112,0.1026,0.0979,0.1536,0.1533,0.1531,0,0.0923,0.0968,0.1092,0.1164,0.1228,0.1357,0.1469,0.1621,0.1755,0.2005,0.211,0.2184,0.2272,0.2143,0.1933,0.1736,0.16,0.1441,0.1379,0.1182,0.1077,0.1032,0.0998,0.1232,0.1228,0.1224,0.1221,0,0.094,0.0963,0.1047,0.117,0.1284,0.1432,0.16,0.1705,0.1926,0.2092,0.2317,0.2398,0.2268,0.2058,0.1752,0.1587,0.1304,0.1357,0.1225,0.0919,0.0801,0.0717,0.1195,0.1189,0.1192,0.1195,0.1197,0.1198,0.0945,0.0991,0.1083,0.1221,0.1352,0.1532,0.1661,0.1862,0.2088,0.2351,0.2415,0.2518,0.2156,0.1754,0.1517,0.0976,0.1081,0.0781,0.0746,0.0732,0.0655,0.1037,0.0926,0.0928,0.0929,0.093,0.0931,0,0.0962,0.1032,0.1145,0.1317,0.1471,0.1541,0.1785,0.1929,0.2202,0.238,0.2542,0.2346,0.1887,0.1439,0.0753,0.0424,0.0348,0.0252,0.0173,0.0187,0.057,0.0523,0.0235,0.0235,0.0235,0.0235,0.0235,0.0236,0.0983,0.108,0.115,0.1406,0.1536,0.1739,0.1883,0.2085,0.2239,0.2398,0.2398,0.2402,0.2084,0.0869,0.0092,-0.0076,-0.02,-0.0313,-0.0278,-0.0042,0.0005,0.005,-0.0008,-0.0403,-0.0404,-0.0677,-0.068,-0.0683]}],[{"header":{"parameterUnit":"m.s-1","parameterCategory":2,"la1":30.2991,"la2":30.254,"lo1":-89.0895,"lo2":-89.0444,"dy":0.0017,"dx":0.0017,"nx":28,"ny":28,"refTime":"2023-08-14T03:00:00:Z","depth":"2","parameterNumber":2,"parameterNumberName":"U-component_of_CURRENTS"},"data":[0,0,0,0,0,0,0,0,0,0,0,0,0,0,0,0,0,0,0,0,0,0,0,0,0,0,0,0,0,0,0,0,0,0,0,0,0,0,0,0,0,0,0,0,0,0,0,0,0,0,0,0,0,0,0,0,0,0,0.3584,0.3585,0,0.3685,0.3687,0.3688,0.3681,0.3679,0.3678,0.3676,0.3898,0.3906,0.3913,0,0,0,0,0,0,0,0,0,0,0,0,0,0.3604,0.3602,0.3584,0.3585,0.3586,0.3685,0.3687,0.3688,0.3681,0.3679,0.3677,0.3675,0.3896,0.3905,0.3914,0,0,0,0,0,0,0,0,0,0,0,0,0,0.364,0.3602,0.3583,0.3593,0.3595,0.3685,0.3687,0.3689,0.3682,0.3679,0.3677,0.3675,0.3893,0.3904,0.3915,0.4034,0,0,0.3949,0.3954,0,0,0,0,0,0,0,0,0.3638,0.364,0.3591,0.3593,0.3595,0.3666,0.3775,0.381,0.3682,0.3651,0.3676,0.3673,0.3833,0.3849,0.3874,0.4044,0.4054,0.395,0.3957,0.3962,0.3965,0,0,0,0,0,0,0,0.3635,0.3637,0.3626,0.3592,0.3594,0.3668,0.3668,0.3783,0.3758,0.3653,0.3653,0.3662,0.3835,0.3863,0.388,0.4057,0.395,0.396,0.3967,0.3971,0.4431,0.4436,0,0,0,0,0,0,0.361,0.3633,0.3622,0.3629,0.3609,0.3668,0.3669,0.3647,0.3754,0.3767,0.3664,0.3661,0.3845,0.3867,0.3888,0.4138,0.3962,0.3972,0.3979,0.4425,0.4432,0.4438,0,0,0,0,0,0,0.361,0.3607,0.3618,0.3634,0.364,0.3669,0.3646,0.3651,0.3732,0.3761,0.3775,0.3744,0.3844,0.3872,0.4075,0.4143,0.3977,0.3987,0.4419,0.4427,0.4435,0.4575,0,0,0,0,0,0,0.3609,0.3606,0.3617,0.3631,0.3638,0.3699,0.3648,0.3654,0.3737,0.3736,0.3835,0.3849,0.3844,0.4059,0.4086,0.4155,0.3996,0.4412,0.4422,0.4432,0.4563,0.4587,0.4607,0,0,0,0,0,0.3609,0.3617,0.3616,0.3617,0.3639,0.3702,0.3716,0.3729,0.3744,0.3793,0.3898,0.3848,0.414,0.4076,0.4106,0.4178,0.4407,0.4419,0.4431,0.4553,0.4582,0.4606,0,0,0,0,0,0,0.3627,0.3618,0.3616,0.3619,0.3674,0.3701,0.3748,0.3784,0.3906,0.3938,0.3963,0.3989,0.416,0.4188,0.4116,0.4342,0.4249,0.4268,0.4332,0.4359,0.4381,0.4255,0.4005,0,0,0,0,0,0.3637,0.3616,0.3662,0.3654,0.3702,0.3752,0.3795,0.3829,0.3917,0.3966,0.4031,0.4127,0.423,0.4314,0.4384,0.4569,0.4509,0.4623,0.4645,0.4663,0.4586,0.4689,0.4711,0.4478,0.4478,0.4478,0,0,0.3641,0.3622,0.3619,0.3656,0.3699,0.3752,0.3773,0.3869,0.3913,0.3983,0.41,0.4211,0.4295,0.4453,0.4533,0.4498,0.4692,0.4679,0.4694,0.4603,0.4704,0.4725,0.4744,0.4487,0.4485,0.4484,0,0,0.3591,0.3636,0.3608,0.3674,0.3757,0.3808,0.3858,0.3958,0.4017,0.4228,0.4223,0.4386,0.4604,0.4608,0.4663,0.4868,0.479,0.4919,0.4955,0.5062,0.5079,0.5093,0.4994,0.4999,0.495,0.4951,0.4951,0,0.3601,0.357,0.3625,0.3636,0.3708,0.3836,0.3895,0.3969,0.4119,0.4174,0.4296,0.4538,0.4654,0.4726,0.4823,0.4904,0.4899,0.4849,0.5083,0.5097,0.511,0.5005,0.5008,0.4959,0.4958,0.4957,0.4956,0,0.3582,0.3558,0.3574,0.3608,0.3697,0.3799,0.3919,0.4027,0.4202,0.4269,0.4462,0.4649,0.4764,0.4868,0.4957,0.5063,0.5002,0.5082,0.4997,0.514,0.5022,0.5022,0.4971,0.4968,0.4965,0.4963,0,0,0.3621,0.3562,0.3597,0.3549,0.3736,0.3779,0.3911,0.4039,0.4089,0.4331,0.4419,0.4684,0.4769,0.4828,0.4918,0.506,0.5207,0.5152,0.5154,0.5009,0.5316,0.4982,0.4948,0.5382,0.5385,0.5387,0.5175,0,0.3618,0.3555,0.3612,0.3612,0.3591,0.3778,0.3858,0.3987,0.4184,0.4296,0.4489,0.4631,0.4745,0.4879,0.5023,0.5182,0.5227,0.5244,0.523,0.5222,0.4879,0.4946,0.4714,0.4485,0.5175,0.5175,0.5175,0,0.3642,0.3561,0.3548,0.3498,0.3546,0.3619,0.3804,0.3896,0.4067,0.4239,0.4393,0.4525,0.4689,0.4857,0.5041,0.5073,0.5169,0.5279,0.5277,0.4891,0.4891,0.447,0.4459,0.5175,0.5175,0.5175,0.5175,0,0.3567,0.3542,0.3505,0.3527,0.3529,0.3608,0.3711,0.3886,0.3977,0.4176,0.4309,0.4456,0.4629,0.479,0.5003,0.5087,0.5188,0.5319,0.5007,0.4977,0.4716,0.4658,0.5383,0.5383,0.5383,0.5384,0.5385,0,0.3495,0.3455,0.3457,0.3405,0.3456,0.3516,0.364,0.3764,0.3937,0.4039,0.4237,0.4361,0.4679,0.4779,0.4929,0.4898,0.5097,0.4927,0.4917,0.475,0.4701,0.527,0.526,0.5376,0.5378,0.5379,0.5381,0,0.332,0.3335,0.3255,0.3298,0.3365,0.3408,0.3624,0.3668,0.3852,0.4008,0.4083,0.4333,0.4491,0.4596,0.4853,0.4766,0.4803,0.472,0.4373,0.4323,0.4513,0.4514,0.4334,0.4321,0.431,0.43,0.4292,0,0.3194,0.3113,0.3206,0.3243,0.3276,0.3384,0.3474,0.3657,0.3731,0.3992,0.4041,0.4218,0.432,0.4345,0.4309,0.4226,0.4515,0.3868,0.3973,0.4403,0.4415,0.4434,0.4449,0.3674,0.3662,0.3652,0.3644,0,0.2942,0.3035,0.3,0.3096,0.3193,0.3293,0.3437,0.3474,0.3687,0.3799,0.3964,0.405,0.4043,0.3888,0.3678,0.365,0.3861,0.3646,0.4275,0.3949,0.3759,0.3778,0.382,0.3554,0.3563,0.357,0.3575,0.3578,0.2841,0.2843,0.2887,0.3,0.3095,0.3207,0.3267,0.3369,0.3478,0.3567,0.3732,0.3699,0.3638,0.3224,0.3086,0.2957,0.3229,0.3141,0.3184,0.3236,0.3171,0.2971,0.2593,0.2596,0.2599,0.2602,0.2604,0,0.2748,0.2791,0.2812,0.2927,0.3001,0.3145,0.324,0.3206,0.3286,0.3301,0.3359,0.2955,0.2762,0.2744,0.2397,0.2243,0.2376,0.219,0.2431,0.2516,0.2593,0.2512,0.1751,0.1748,0.1745,0.1743,0,0,0.2689,0.2689,0.2736,0.2841,0.2973,0.3021,0.309,0.2994,0.2938,0.2775,0.2676,0.2675,0.2672,0.2191,0.2077,0.1902,0.2231,0.1829,0.252,0.29,0.2975,0.3133,0.3096,0,0,0,0,0]},{"header":{"parameterUnit":"m.s-1","parameterCategory":2,"la1":30.2991,"la2":30.254,"lo1":-89.0895,"lo2":-89.0444,"dy":0.0017,"dx":0.0017,"nx":28,"ny":28,"refTime":"2023-08-14T03:00:00:Z","depth":"2","parameterNumber":3,"parameterNumberName":"V-component_of_CURRENTS"},"data":[0,0,0,0,0,0,0,0,0,0,0,0,0,0,0,0,0,0,0,0,0,0,0,0,0,0,0,0,0,0,0,0,0,0,0,0,0,0,0,0,0,0,0,0,0,0,0,0,0,0,0,0,0,0,0,0,0,0,0.0032,0.0032,0,-0.0063,-0.0065,-0.0066,-0.0091,-0.009,-0.0088,-0.0087,-0.0024,-0.0024,-0.0024,0,0,0,0,0,0,0,0,0,0,0,0,0,0.0135,0.0132,0.0032,0.0032,0.0031,-0.0062,-0.0065,-0.0067,-0.0091,-0.0089,-0.0088,-0.0086,-0.0024,-0.0024,-0.0024,0,0,0,0,0,0,0,0,0,0,0,0,0,0.0061,0.0132,0.0032,0.0015,0.0014,-0.0062,-0.0065,-0.0068,-0.0092,-0.0089,-0.0087,-0.0085,-0.0025,-0.0024,-0.0024,-0.0066,0,0,-0.0023,-0.0022,0,0,0,0,0,0,0,0,0.0065,0.0056,0.0018,0.0016,0.0014,-0.0054,-0.0005,-0.0056,-0.0092,-0.0062,-0.0087,-0.0084,-0.0015,-0.0015,-0.0054,-0.0063,-0.0061,-0.0023,-0.0022,-0.0022,-0.0022,0,0,0,0,0,0,0,0.007,0.0059,-0.0016,0.0018,0.0016,-0.0006,-0.0015,-0.0017,-0.0055,-0.0065,-0.0064,-0.006,-0.0016,-0.0055,-0.0052,-0.006,-0.0023,-0.0022,-0.0022,-0.0022,0.0033,0.0034,0,0,0,0,0,0,0.0102,0.0064,-0.0012,-0.0017,0.0057,-0.0009,-0.0019,-0.0043,-0.0058,-0.0057,-0.0061,-0.006,-0.0057,-0.0053,-0.005,0.0019,-0.0022,-0.0022,-0.0022,0.0032,0.0033,0.0035,0,0,0,0,0,0,0.0104,0.0095,-0.0008,0.0031,0.0018,-0.0011,-0.0039,-0.0045,-0.0056,-0.0056,-0.0053,-0.006,-0.0055,-0.005,-0.0002,0.0017,-0.0022,-0.0021,0.0031,0.0032,0.0034,0.0081,0,0,0,0,0,0,0.0106,0.0095,0.0081,0.0032,0.0017,-0.0046,-0.004,-0.0048,-0.0053,-0.0053,-0.0054,-0.0048,-0.0053,-0.0002,-0.0001,0.0017,-0.0021,0.0029,0.0031,0.0034,0.0078,0.0084,0.0089,0,0,0,0,0,0.011,0.0079,0.008,0.0072,0.0001,-0.0046,-0.0058,-0.0076,-0.0055,-0.0076,-0.0037,-0.0047,0.0013,-0.0,0.0,0.0019,0.0028,0.0031,0.0033,0.0075,0.0083,0.0089,0,0,0,0,0,0,0.0123,0.0073,0.0073,0.0032,0.0006,-0.0045,-0.0072,-0.0064,-0.0063,-0.0045,-0.003,-0.0022,0.0015,0.0018,0.0003,0.0043,0.0017,0.002,0.0049,0.0056,0.0062,0.0106,-0.0021,0,0,0,0,0,0.0121,0.0075,0.0047,0.0013,-0.0002,-0.003,-0.0048,-0.0052,-0.0051,-0.0051,-0.0037,-0.001,0.0015,0.0042,0.004,0.0073,0.0071,0.0086,0.0091,0.0096,0.0134,0.0216,0.0234,0.0044,0.0044,0.0044,0,0,0.0119,0.0086,0.0062,0.0013,-0.0019,-0.0046,-0.0039,-0.0066,-0.0058,-0.004,-0.0023,-0.0002,0.0024,0.0053,0.0072,0.0071,0.0121,0.01,0.0104,0.014,0.0221,0.024,0.0257,0.0046,0.0045,0.0045,0,0,0.0068,0.0059,-0.0006,-0.0019,-0.0049,-0.0056,-0.0049,-0.0077,-0.0064,-0.0032,-0.0014,0.0043,0.0061,0.0094,0.0116,0.0159,0.0136,0.0149,0.0234,0.0312,0.033,0.0345,0.0244,0.0251,0.017,0.0171,0.0171,0,0.0065,0.0011,-0.0026,-0.0073,-0.0047,-0.005,-0.0056,-0.0069,-0.0063,-0.0008,-0.0012,0.0081,0.0086,0.0174,0.0193,0.0173,0.0169,0.0202,0.0323,0.0339,0.0354,0.0248,0.0255,0.0173,0.0173,0.0173,0.0172,0,-0.0029,-0.0043,-0.0073,-0.0118,-0.0112,-0.011,-0.0096,-0.0069,-0.0018,0.0005,0.0103,0.0127,0.0207,0.0202,0.0219,0.033,0.0263,0.0304,0.0308,0.0377,0.0257,0.0264,0.0177,0.0176,0.0175,0.0175,0,0,-0.0063,-0.0129,-0.0112,-0.0088,-0.0099,-0.0077,-0.0054,0.0012,0.01,0.0108,0.0242,0.0268,0.0312,0.0343,0.036,0.0441,0.0485,0.0441,0.0444,0.0342,0.055,0.0448,0.0442,0.0579,0.0584,0.0587,0.0378,0,-0.0095,-0.0133,-0.0151,-0.0108,-0.0101,-0.0043,0.0007,0.0074,0.0147,0.0259,0.0318,0.0413,0.035,0.0433,0.0491,0.0532,0.0527,0.0531,0.05,0.0495,0.0404,0.0459,0.0451,0.0267,0.0384,0.0385,0.0386,0,-0.014,-0.0141,-0.0122,-0.0019,-0.0001,0.003,0.022,0.0261,0.0384,0.0452,0.0542,0.0576,0.0665,0.0635,0.0661,0.068,0.061,0.0603,0.0596,0.0514,0.0413,0.0244,0.0274,0.0396,0.0395,0.0394,0.0394,0,-0.0081,-0.0067,-0.0014,0.0007,0.0064,0.0146,0.0222,0.034,0.0445,0.0591,0.0701,0.0755,0.0857,0.0818,0.0746,0.0738,0.0772,0.0739,0.0525,0.0507,0.0503,0.0481,0.0739,0.0739,0.074,0.074,0.0741,0,-0.0068,-0.0008,0.0032,0.0059,0.0206,0.0234,0.041,0.0492,0.0644,0.0817,0.0812,0.0971,0.0947,0.0947,0.081,0.0678,0.0784,0.0545,0.05,0.0498,0.048,0.0631,0.0621,0.0732,0.0734,0.0736,0.0737,0,-0.003,-0.0024,0.0055,0.0155,0.021,0.0332,0.0518,0.065,0.0765,0.1,0.1063,0.1178,0.1184,0.1031,0.0988,0.0779,0.0648,0.055,0.0453,0.0404,0.027,0.0265,0.0265,0.0261,0.0258,0.0255,0.0252,0,-0.0024,0.0003,0.0141,0.0222,0.0268,0.0438,0.0563,0.0708,0.086,0.1143,0.1282,0.1357,0.1423,0.1196,0.0898,0.0545,0.059,0.0286,0.0284,0.0291,0.0246,0.0247,0.0246,0.021,0.0207,0.0205,0.0203,0,0.0011,0.0063,0.0142,0.0296,0.0436,0.0611,0.0807,0.0949,0.1171,0.1376,0.1657,0.1729,0.1494,0.121,0.0717,0.0497,0.0341,0.0226,0.0367,0.0347,0.023,0.0188,0.0192,0.0184,0.0186,0.0187,0.0188,0.0189,0.0071,0.0164,0.0271,0.0431,0.058,0.0802,0.099,0.121,0.1504,0.1794,0.1845,0.1893,0.1534,0.0888,0.0553,0.018,0.0177,0.0024,0.0036,0.0049,0.0097,-0.0015,-0.0112,-0.0112,-0.0112,-0.0112,-0.0111,0,0.0187,0.0277,0.0406,0.0621,0.0801,0.0872,0.1172,0.1365,0.1737,0.1866,0.2027,0.1651,0.1287,0.0907,0.0299,-0.0072,-0.0045,-0.0135,-0.0024,-0.0007,0.0009,0.0063,-0.0161,-0.0161,-0.0161,-0.0161,0,0,0.0258,0.041,0.0484,0.0791,0.0946,0.1234,0.1432,0.1677,0.1813,0.1961,0.1926,0.176,0.1309,0.0864,0.0424,0.0139,0.0161,0.0092,0.0149,0.0345,0.0366,0.0094,0.0193,0,0,0,0,0]}],[{"header":{"parameterUnit":"m.s-1","parameterCategory":2,"la1":30.2991,"la2":30.254,"lo1":-89.0895,"lo2":-89.0444,"dy":0.0017,"dx":0.0017,"nx":28,"ny":28,"refTime":"2023-08-14T03:00:00:Z","depth":"4","parameterNumber":2,"parameterNumberName":"U-component_of_CURRENTS"},"data":[0,0,0,0,0,0,0,0,0,0,0,0,0,0,0,0,0,0,0,0,0,0,0,0,0,0,0,0,0,0,0,0,0,0,0,0,0,0,0,0,0,0,0,0,0,0,0,0,0,0,0,0,0,0,0,0,0,0,0.113,0.1129,0,0.1015,0.1013,0.1012,0.0996,0.0997,0.0999,0.1,0.0957,0.0954,0.0952,0,0,0,0,0,0,0,0,0,0,0,0,0,0.1203,0.1202,0.113,0.1129,0.1128,0.1015,0.1013,0.1011,0.0996,0.0998,0.0999,0.1001,0.0958,0.0955,0.0952,0,0,0,0,0,0,0,0,0,0,0,0,0,0.1135,0.1202,0.113,0.1109,0.1106,0.1016,0.1013,0.1011,0.0995,0.0998,0.1,0.1002,0.0959,0.0955,0.0951,0.0887,0,0,0.094,0.0939,0,0,0,0,0,0,0,0,0.1139,0.1132,0.1113,0.111,0.1107,0.1025,0.1023,0.0974,0.0995,0.1034,0.1,0.1003,0.0987,0.0981,0.0949,0.0885,0.0883,0.094,0.0938,0.0936,0.0935,0,0,0,0,0,0,0,0.1144,0.1136,0.1081,0.1112,0.1108,0.106,0.1053,0.1013,0.0999,0.1031,0.103,0.1022,0.0986,0.0952,0.0948,0.0882,0.094,0.0937,0.0934,0.0933,0.0899,0.09,0,0,0,0,0,0,0.1169,0.1141,0.1085,0.1078,0.1132,0.1058,0.105,0.1046,0.0998,0.0992,0.102,0.1022,0.0958,0.0952,0.0947,0.0976,0.0936,0.0933,0.0931,0.0898,0.09,0.0901,0,0,0,0,0,0,0.1171,0.1165,0.1089,0.1109,0.1097,0.1056,0.105,0.1043,0.105,0.099,0.0986,0.1041,0.0959,0.0952,0.0958,0.0971,0.0931,0.0928,0.0896,0.0898,0.09,0.0966,0,0,0,0,0,0,0.1174,0.1167,0.1191,0.1111,0.1097,0.1024,0.1048,0.1039,0.1041,0.1043,0.1004,0.1,0.096,0.0964,0.0954,0.0965,0.0925,0.0895,0.0897,0.09,0.0963,0.097,0.0977,0,0,0,0,0,0.1177,0.1149,0.1193,0.1187,0.1125,0.1023,0.1009,0.0985,0.1041,0.1008,0.1034,0.1003,0.0973,0.0962,0.095,0.096,0.0894,0.0897,0.0899,0.0959,0.0969,0.0977,0,0,0,0,0,0,0.115,0.1143,0.1189,0.1156,0.1111,0.1022,0.0996,0.1009,0.1,0.1029,0.1012,0.1006,0.1011,0.0985,0.0974,0.0962,0.093,0.0931,0.098,0.0988,0.0995,0.1023,0.0922,0,0,0,0,0,0.1175,0.1168,0.1145,0.111,0.1109,0.1081,0.1055,0.1037,0.101,0.101,0.1,0.1004,0.1002,0.1001,0.0968,0.0962,0.096,0.0965,0.0973,0.0979,0.0996,0.1037,0.105,0.0911,0.0911,0.0911,0,0,0.1121,0.1145,0.112,0.1109,0.1087,0.1049,0.1067,0.1013,0.0997,0.1006,0.1004,0.1017,0.1006,0.0997,0.0998,0.0986,0.1011,0.0983,0.0988,0.1002,0.1042,0.1055,0.1067,0.0913,0.0912,0.0912,0,0,0.1009,0.1077,0.1041,0.1036,0.1033,0.102,0.1026,0.0982,0.0993,0.0983,0.1015,0.1047,0.1017,0.1019,0.1021,0.105,0.1044,0.1058,0.112,0.1159,0.1172,0.1182,0.1171,0.118,0.1069,0.1069,0.1069,0,0.0917,0.0965,0.0997,0.0987,0.1,0.1025,0.0995,0.098,0.0944,0.0995,0.0985,0.1049,0.1016,0.1075,0.1091,0.1062,0.1094,0.1086,0.117,0.1181,0.1191,0.1177,0.1186,0.1072,0.1072,0.1072,0.1071,0,0.083,0.0871,0.0845,0.0885,0.088,0.085,0.0872,0.0892,0.0948,0.0969,0.1048,0.1036,0.1099,0.1087,0.1095,0.1177,0.1177,0.1169,0.115,0.1209,0.1189,0.1198,0.1078,0.1076,0.1075,0.1074,0,0,0.0589,0.0741,0.0748,0.082,0.086,0.0842,0.0858,0.0908,0.0996,0.0989,0.11,0.1098,0.1179,0.119,0.1221,0.1253,0.1316,0.127,0.127,0.126,0.1409,0.13,0.1298,0.1364,0.1367,0.1369,0.1357,0,0.0511,0.0547,0.0639,0.0667,0.0704,0.0791,0.0817,0.0876,0.0962,0.1065,0.1125,0.1226,0.1196,0.1287,0.1307,0.1339,0.1351,0.1319,0.1351,0.1351,0.125,0.1308,0.1377,0.1363,0.1365,0.1366,0.1367,0,0.0449,0.051,0.0542,0.07,0.0722,0.0736,0.0907,0.0937,0.1087,0.1199,0.133,0.1378,0.1467,0.1426,0.1475,0.1485,0.1458,0.1442,0.1441,0.1328,0.126,0.1298,0.1382,0.1381,0.138,0.1379,0.1378,0,0.0394,0.0473,0.0542,0.0576,0.0697,0.0763,0.0847,0.0991,0.1081,0.1337,0.1437,0.1555,0.1622,0.1636,0.1569,0.1575,0.1586,0.1569,0.1421,0.1411,0.1481,0.147,0.1581,0.1581,0.1581,0.1581,0.1581,0,0.0348,0.0403,0.0543,0.058,0.0678,0.0781,0.0924,0.1064,0.1247,0.137,0.1531,0.1607,0.169,0.167,0.1627,0.1541,0.1622,0.1444,0.1418,0.1503,0.1495,0.1485,0.1474,0.158,0.158,0.158,0.158,0,0.0291,0.0375,0.046,0.0607,0.0663,0.0749,0.0953,0.1059,0.1275,0.1439,0.1528,0.167,0.1691,0.1666,0.1669,0.1585,0.1532,0.1464,0.1532,0.1507,0.1316,0.1309,0.134,0.1337,0.1334,0.1331,0.1329,0,0.0268,0.0314,0.047,0.0528,0.0604,0.0755,0.0852,0.1083,0.1192,0.1425,0.1468,0.1555,0.1616,0.1536,0.1535,0.1464,0.1416,0.1398,0.1386,0.1329,0.1301,0.1298,0.1295,0.1324,0.1323,0.1323,0.1322,0,0.0219,0.0286,0.0356,0.0473,0.0583,0.0712,0.0868,0.0922,0.1167,0.1335,0.1446,0.1475,0.147,0.1468,0.1421,0.135,0.1443,0.1366,0.1372,0.136,0.131,0.1284,0.1284,0.1311,0.1313,0.1314,0.1314,0,0.0178,0.021,0.0307,0.0412,0.0544,0.0639,0.0732,0.0866,0.0995,0.1241,0.1246,0.1353,0.1461,0.1399,0.1337,0.1296,0.1268,0.1247,0.1258,0.127,0.1245,0.1171,0.1123,0,0,0,0,0,0.0142,0.0172,0.0246,0.0356,0.0489,0.0557,0.0725,0.0813,0.0987,0.1053,0.1173,0.1187,0.1206,0.123,0.1161,0.1205,0.1205,0.1115,0.1171,0.1253,0.1265,0.1238,0,0,0,0,0,0,0.0109,0.0164,0.0202,0.0297,0.0356,0.0488,0.0579,0.0691,0.0743,0.0928,0.0934,0.1109,0.1102,0.1221,0.1133,0.1133,0.1146,0.1176,0.1173,0.1246,0.1257,0.1267,0.1243,0,0,0,0,0]},{"header":{"parameterUnit":"m.s-1","parameterCategory":2,"la1":30.2991,"la2":30.254,"lo1":-89.0895,"lo2":-89.0444,"dy":0.0017,"dx":0.0017,"nx":28,"ny":28,"refTime":"2023-08-14T03:00:00:Z","depth":"4","parameterNumber":3,"parameterNumberName":"V-component_of_CURRENTS"},"data":[0,0,0,0,0,0,0,0,0,0,0,0,0,0,0,0,0,0,0,0,0,0,0,0,0,0,0,0,0,0,0,0,0,0,0,0,0,0,0,0,0,0,0,0,0,0,0,0,0,0,0,0,0,0,0,0,0,0,0.0109,0.011,0,0.0104,0.0103,0.0102,0.0053,0.0052,0.0052,0.0051,-0.0052,-0.0054,-0.0057,0,0,0,0,0,0,0,0,0,0,0,0,0,0.0085,0.0085,0.0109,0.011,0.011,0.0104,0.0103,0.0102,0.0053,0.0052,0.0051,0.0051,-0.0052,-0.0054,-0.0057,0,0,0,0,0,0,0,0,0,0,0,0,0,0.0082,0.0085,0.0109,0.009,0.0089,0.0104,0.0103,0.0102,0.0053,0.0052,0.0051,0.0051,-0.0051,-0.0054,-0.0057,-0.0061,0,0,-0.0068,-0.0069,0,0,0,0,0,0,0,0,0.0083,0.0082,0.0093,0.0092,0.0091,0.0084,0.0057,0.0045,0.0053,0.0059,0.0051,0.005,-0.001,-0.0017,-0.0025,-0.0066,-0.0071,-0.0068,-0.007,-0.0071,-0.0072,0,0,0,0,0,0,0,0.0083,0.0082,0.01,0.0094,0.0092,0.0086,0.0083,0.0054,0.0022,0.0058,0.0057,0.0068,-0.0013,-0.0022,-0.0028,-0.0072,-0.0068,-0.0071,-0.0073,-0.0074,-0.0188,-0.0188,0,0,0,0,0,0,0.0099,0.0083,0.01,0.01,0.0093,0.0087,0.0084,0.0081,0.0024,0.0017,0.0069,0.0066,-0.0016,-0.0024,-0.0032,-0.0037,-0.0071,-0.0074,-0.0076,-0.0187,-0.0188,-0.0189,0,0,0,0,0,0,0.0098,0.01,0.01,0.0098,0.0098,0.0089,0.0086,0.0082,0.0077,0.0034,0.0024,0.0069,-0.0017,-0.0027,-0.0064,-0.0042,-0.0076,-0.0079,-0.0185,-0.0187,-0.0188,-0.005,0,0,0,0,0,0,0.0097,0.0099,0.0099,0.0099,0.0099,0.0127,0.0087,0.0083,0.0088,0.0084,0.0031,0.0021,-0.0018,-0.0058,-0.0067,-0.0047,-0.0082,-0.0184,-0.0186,-0.0188,-0.0053,-0.0046,-0.0041,0,0,0,0,0,0.0096,0.0117,0.0099,0.0102,0.01,0.0129,0.0129,0.0114,0.009,0.0102,0.0048,0.0022,-0.0077,-0.0061,-0.0071,-0.0052,-0.0183,-0.0185,-0.0188,-0.0056,-0.0048,-0.0041,0,0,0,0,0,0,0.0136,0.0115,0.0095,0.0114,0.0125,0.0124,0.0141,0.0123,0.0092,0.008,0.0022,0.0008,-0.0021,-0.0066,-0.0047,-0.01,-0.0139,-0.0143,-0.0036,-0.0029,-0.0022,-0.0029,-0.0084,0,0,0,0,0,0.0138,0.0125,0.0129,0.0145,0.0156,0.0144,0.0152,0.0143,0.0122,0.0108,0.0075,0.0016,-0.0038,-0.0055,-0.0104,-0.0118,-0.019,-0.0123,-0.0116,-0.011,-0.0129,-0.024,-0.0244,-0.0196,-0.0196,-0.0196,0,0,0.017,0.0148,0.015,0.0149,0.0153,0.0177,0.0145,0.0171,0.0179,0.0101,0.01,0.0043,-0.0042,-0.0064,-0.0081,-0.0094,-0.0153,-0.0113,-0.0106,-0.0129,-0.0242,-0.0247,-0.0251,-0.0198,-0.0197,-0.0197,0,0,0.0225,0.0199,0.0212,0.0215,0.0222,0.0213,0.0225,0.023,0.0221,0.0217,0.0143,0.0093,0.0047,-0.0018,-0.006,-0.0056,-0.012,-0.0065,-0.0025,-0.013,-0.0134,-0.0139,-0.0184,-0.0194,-0.0055,-0.0055,-0.0054,0,0.0264,0.0261,0.0231,0.0247,0.0253,0.0233,0.0265,0.0261,0.0251,0.0227,0.0232,0.0102,0.0061,-0.0024,-0.0012,-0.0037,-0.0095,-0.003,-0.0118,-0.0125,-0.0133,-0.0179,-0.0192,-0.0048,-0.0049,-0.005,-0.005,0,0.0325,0.0323,0.0343,0.0329,0.0338,0.0366,0.0358,0.0356,0.0341,0.0318,0.0254,0.0186,0.0096,0.0089,0.0052,-0.0027,-0.0046,-0.0095,-0.0123,-0.0128,-0.0177,-0.0193,-0.0039,-0.0041,-0.0043,-0.0045,0,0,0.0394,0.0386,0.0386,0.0383,0.0375,0.0391,0.0397,0.0382,0.0357,0.0344,0.0291,0.0228,0.0173,0.0117,0.0055,-0.0014,-0.007,-0.0056,-0.0065,-0.0076,-0.0265,-0.0196,-0.0207,-0.0132,-0.0135,-0.0138,-0.0257,0,0.0446,0.0477,0.0455,0.0486,0.0502,0.0467,0.0464,0.0437,0.0407,0.0355,0.0267,0.0207,0.0188,0.0149,0.0072,-0.0065,-0.0116,-0.0032,-0.0284,-0.0291,-0.0209,-0.0226,-0.0149,-0.0269,-0.0273,-0.0276,-0.0278,0,0.0491,0.0495,0.0542,0.0519,0.0525,0.0547,0.0498,0.0499,0.0411,0.0389,0.0304,0.0218,0.0106,0.0097,-0.0117,-0.0063,-0.0146,-0.023,-0.0238,-0.0244,-0.0254,-0.0285,-0.0308,-0.0306,-0.0304,-0.0302,-0.03,0,0.051,0.0538,0.0568,0.0571,0.0565,0.0572,0.0569,0.0507,0.0489,0.0409,0.0364,0.0211,0.0128,-0.0023,-0.0163,-0.0158,-0.0391,-0.0418,-0.043,-0.0424,-0.0509,-0.0504,-0.0562,-0.0562,-0.0562,-0.0562,-0.0561,0,0.0532,0.055,0.059,0.0604,0.0629,0.0614,0.062,0.0592,0.0529,0.0487,0.0387,0.0299,0.0089,-0.0068,-0.0187,-0.0344,-0.0413,-0.0432,-0.0466,-0.0441,-0.0427,-0.0517,-0.051,-0.0566,-0.0565,-0.0564,-0.0563,0,0.0531,0.0558,0.0594,0.0623,0.0642,0.0663,0.0682,0.0665,0.0622,0.0555,0.0529,0.0339,0.0145,-0.004,-0.0294,-0.0362,-0.0522,-0.0549,-0.0466,-0.0491,-0.0477,-0.0462,-0.0606,-0.0605,-0.0604,-0.0603,-0.0603,0,0.0527,0.0554,0.062,0.0654,0.0681,0.0725,0.0739,0.0726,0.0699,0.0575,0.0516,0.0325,0.0195,-0.0097,-0.0286,-0.05,-0.0514,-0.057,-0.0559,-0.0471,-0.049,-0.0476,-0.0463,-0.0601,-0.0601,-0.0601,-0.0601,0,0.0517,0.0555,0.0582,0.0657,0.0708,0.0753,0.0772,0.0744,0.0697,0.0671,0.0517,0.0357,0.0139,-0.0092,-0.0235,-0.0395,-0.0533,-0.0562,-0.0565,-0.0556,-0.0467,-0.0483,-0.0472,-0.0597,-0.0598,-0.0598,-0.0598,0,0.0504,0.0526,0.0574,0.0626,0.0715,0.0738,0.0749,0.0715,0.069,0.0564,0.0516,0.0307,0.0186,-0.0038,-0.0189,-0.032,-0.0364,-0.0386,-0.04,-0.0406,-0.0301,-0.0156,-0.023,0,0,0,0,0,0.0479,0.0486,0.0536,0.0595,0.0693,0.0727,0.0743,0.0733,0.0687,0.0605,0.0568,0.039,0.015,0.0014,-0.0108,-0.0206,-0.041,-0.0352,-0.0448,-0.0579,-0.0583,-0.0488,0,0,0,0,0,0,0.0457,0.0492,0.0504,0.0568,0.0611,0.0689,0.0692,0.0653,0.0599,0.0553,0.0419,0.0401,0.0148,0.0234,-0.0096,-0.0142,-0.021,-0.0457,-0.0459,-0.0577,-0.058,-0.0584,-0.0487,0,0,0,0,0]}]]